Simultaneous Nadir Overpasses (SNOs) Predictions

Prediction of SNOs between LANDSAT-8 and NPP Satellite Orbit:

Table of predicted SNOs for the next 14.0 days since TLE Epoch: 10/3/2020
Index Date (LANDSAT-8) Time (LANDSAT-8) Lat,Lon (LANDSAT-8) SZA (LANDSAT-8 ) Date (NPP) Time (NPP) Lat,Lon (NPP) SZA (NPP ) Distance(km) Time Diff (sec)
1 10/05/2020 06:58:42 70.16, 71.94 74.99 10/05/2020 06:57:57 70.15, 71.86 74.99 3.09 45
2 10/05/2020 07:48:13 -69.99,-120.66 105.16 10/05/2020 07:48:38 -70.00,-120.59 105.16 2.66 25
3 10/07/2020 23:15:12 70.07,-172.30 75.93 10/07/2020 23:14:49 70.09,-172.27 75.95 1.59 23
4 10/08/2020 00:04:42 -69.97, -4.82 104.16 10/08/2020 00:05:31 -69.99, -4.81 104.14 2.28 49
5 10/10/2020 14:42:13 -70.26, 136.20 102.88 10/10/2020 14:41:01 -70.29, 135.87 102.85 12.71 72
6 10/10/2020 15:31:42 70.04, -56.47 76.92 10/10/2020 15:31:42 70.03, -56.41 76.90 2.73 0
7 10/10/2020 16:21:12 -69.94, 111.02 103.18 10/10/2020 16:22:24 -69.93, 111.05 103.19 1.85 72
8 10/13/2020 06:58:45 -70.12,-108.12 102.02 10/13/2020 06:57:52 -70.12,-108.10 102.01 0.70 53
9 10/13/2020 07:48:12 70.01, 59.37 77.89 10/13/2020 07:48:36 70.02, 59.36 77.90 1.38 24
10 10/13/2020 08:37:56 -69.14,-134.18 102.98 10/13/2020 08:39:03 -69.12,-132.02 102.99 85.62 67
11 10/15/2020 23:15:15 -70.09, 7.71 101.06 10/15/2020 23:14:45 -70.07, 7.75 101.08 2.58 30
12 10/16/2020 00:04:42 69.97, 175.19 78.84 10/16/2020 00:05:29 69.97, 175.21 78.84 0.98 47
